Overview Statistics Trail Chart Weather Telemetry Raw packets
 

This is the latest recevied weather packets stored in our database for station/object PE1RXF-13. If no packets are shown the sender has not sent any weather packets the latest 10 day(s).

<< 23 24 25 26 27 28 29 >>
Time Temp. Humidity Pressure Rain* Wind** Luminosity Snow
1788006019 21.11° C 99% 1008.1 hPa 0 mm - 82 W/m² -
1788004915 21.67° C 99% 1008.2 hPa 0 mm - 228 W/m² -
1788003812 18.89° C 99% 1008.4 hPa 0 mm - 102 W/m² -
1788002710 20° C 99% 1008.5 hPa 0 mm - 75 W/m² -
1788001607 20.56° C 99% 1008.5 hPa 0 mm - 39 W/m² -
1788000504 20° C 99% 1008.4 hPa 0 mm - 62 W/m² -
1787999401 21.67° C 99% 1008.4 hPa 0 mm - 112 W/m² -
1787998298 21.11° C 99% 1008.3 hPa 0 mm - 91 W/m² -
1787997194 20.56° C 99% 1008.2 hPa 0 mm - 81 W/m² -
1787996091 18.89° C 99% 1008.2 hPa 0 mm - 95 W/m² -
1787994989 18.89° C 99% 1008.1 hPa 0 mm - 83 W/m² -
1787993886 16.67° C 99% 1008 hPa 0 mm - 23 W/m² -
1787992782 17.22° C 99% 1007.9 hPa 0 mm - 31 W/m² -
1787991679 16.67° C 99% 1007.8 hPa 0 mm - 23 W/m² -
1787990577 17.22° C 99% 1007.8 hPa 0 mm - 39 W/m² -
1787989473 16.67° C 99% 1007.5 hPa 0.25 mm - 59 W/m² -
1787988370 16.67° C 99% 1007.4 hPa 0.25 mm - 41 W/m² -
1787987267 16.11° C 99% 1007.2 hPa 0.25 mm - 26 W/m² -
1787986165 15.56° C 99% 1007.2 hPa 0 mm - 27 W/m² -
1787983958 16.11° C 99% 1007 hPa 0 mm - 5 W/m² -
1787982856 16.11° C 99% 1006.9 hPa 0 mm - 10 W/m² -
1787981752 16.11° C 99% 1006.8 hPa 0 mm - 5 W/m² -
1787980649 15.56° C 99% 1006.7 hPa 0 mm - 11 W/m² -
1787979546 15.56° C 99% 1006.7 hPa 0.25 mm - 2 W/m² -
1787978444 15° C 99% 1006.6 hPa 0.25 mm - 0 W/m² -

* Rain latest hour (hover to see other rain measurements)
** Current wind speed in m/s (hover to see current wind gust speed)